contact:dominique.lefevre@mio.osupytheas.fr, maurice.libes@osupytheas.fr, didier.mallarino@osupytheas.fr
Project:EMSO http://www.emso-fr.org/EMSO-France
Depth: 2436.0 m
Title:EMSO Ligure Ouest : Data MII capteur AQUADOPP
Date,Latitude,Longitude,X_East,Y_North,Z_Up,Amplitude_X,Amplitude_Y,Amplitude_Z,Batterie,SoundSpeed,Heading,Pitch,Roll,Pressure,TIS,Speed,Direction
, degrees North, degrees East, m.s-1, m.s-1,m.s-1, 1, 1, 1, Volt, m.s-1, degree, degree, degree, dbar, degree_C, m.s-1, degree
2020-09-12T00:04:03,42.805,6.029,0.043,-0.024,0.011,103.0,109.0,102.0,13.4,1505.2,326.5,-0.8,1.9,2470.467,13.3,0.049,119.2
2020-09-12T00:07:02,42.805,6.029,0.033,-0.006,-0.003,104.0,108.0,102.0,13.4,1505.3,324.0,-0.7,1.9,2470.399,13.31,0.033,100.3
2020-09-12T00:10:03,42.805,6.029,0.05,-0.009,-0.009,105.0,110.0,102.0,13.3,1505.3,324.0,-0.7,1.8,2470.416,13.31,0.05,100.2
2020-09-12T00:13:03,42.805,6.029,0.006,-0.027,-0.017,104.0,109.0,102.0,13.4,1505.3,324.3,-0.7,1.9,2470.353,13.32,0.027,167.5
2020-09-12T00:16:03,42.805,6.029,0.044,0.006,-0.013,105.0,111.0,101.0,13.3,1505.3,322.9,-0.7,1.8,2470.333,13.32,0.044,82.2
2020-09-12T00:19:03,42.805,6.029,0.031,-0.005,0.007,103.0,111.0,101.0,13.3,1505.3,326.7,-0.7,1.8,2470.382,13.32,0.031,99.2
2020-09-12T00:22:02,42.805,6.029,0.046,-0.02,-0.002,104.0,113.0,102.0,13.4,1505.3,324.9,-0.7,1.8,2470.379,13.32,0.05,113.5
2020-09-12T00:25:03,42.805,6.029,0.036,0.001,0.0,105.0,109.0,104.0,13.4,1505.3,324.2,-0.7,1.8,2470.349,13.32,0.036,88.4
2020-09-12T00:28:02,42.805,6.029,0.022,0.001,0.0,104.0,110.0,103.0,13.3,1505.3,326.3,-0.7,1.8,2470.377,13.32,0.022,87.4
2020-09-12T00:31:02,42.805,6.029,0.024,-0.007,0.0,104.0,111.0,102.0,13.4,1505.3,324.2,-0.7,1.8,2470.371,13.32,0.025,106.3
2020-09-12T00:34:03,42.805,6.029,0.035,-0.009,-0.016,104.0,111.0,102.0,13.4,1505.3,327.0,-0.7,1.8,2470.355,13.32,0.036,104.4
2020-09-12T00:37:03,42.805,6.029,0.029,-0.006,-0.003,105.0,109.0,102.0,13.3,1505.3,323.6,-0.7,1.8,2470.361,13.32,0.029,101.7
2020-09-12T00:40:03,42.805,6.029,0.043,0.001,0.019,105.0,112.0,102.0,13.4,1505.3,325.2,-0.7,1.8,2470.334,13.32,0.043,88.7
2020-09-12T00:43:03,42.805,6.029,0.024,-0.004,-0.048,104.0,112.0,102.0,13.3,1505.3,324.5,-0.7,1.8,2470.374,13.32,0.024,99.5
2020-09-12T00:46:03,42.805,6.029,0.004,-0.014,-0.041,106.0,111.0,102.0,13.3,1505.3,323.4,-0.7,1.8,2470.356,13.32,0.014,164.1
2020-09-12T00:49:03,42.805,6.029,0.028,-0.007,-0.013,105.0,111.0,102.0,13.3,1505.3,326.7,-0.7,1.8,2470.358,13.32,0.028,104.0
2020-09-12T00:52:02,42.805,6.029,0.025,-0.005,0.014,104.0,110.0,102.0,13.4,1505.3,324.7,-0.7,1.8,2470.4,13.32,0.025,101.3
2020-09-12T00:55:03,42.805,6.029,0.025,-0.027,0.0,105.0,109.0,101.0,13.4,1505.3,324.9,-0.7,1.8,2470.349,13.32,0.036,137.2
2020-09-12T00:58:02,42.805,6.029,0.003,0.004,-0.006,105.0,109.0,101.0,13.4,1505.3,328.0,-0.7,1.8,2470.371,13.32,0.005,36.9
2020-09-12T01:04:02,42.805,6.029,0.02,-0.003,0.018,106.0,109.0,103.0,13.3,1505.2,327.9,-0.7,1.8,2470.403,13.3,0.02,98.5
2020-09-12T01:07:03,42.805,6.029,0.036,-0.017,0.0,104.0,111.0,102.0,13.4,1505.3,323.1,-0.7,1.9,2470.403,13.31,0.039,115.3
2020-09-12T01:10:02,42.805,6.029,0.049,-0.016,-0.039,104.0,111.0,102.0,13.4,1505.3,322.8,-0.7,1.9,2470.401,13.31,0.051,108.1
2020-09-12T01:13:03,42.805,6.029,0.041,-0.004,-0.008,105.0,110.0,101.0,13.4,1505.3,324.8,-0.7,1.8,2470.392,13.32,0.041,95.6
2020-09-12T01:16:02,42.805,6.029,0.015,-0.023,0.012,105.0,108.0,102.0,13.4,1505.3,325.9,-0.7,1.8,2470.363,13.32,0.027,146.9
2020-09-12T01:19:03,42.805,6.029,0.015,-0.018,0.003,105.0,113.0,102.0,13.4,1505.3,326.5,-0.7,1.8,2470.404,13.32,0.023,140.2
2020-09-12T01:22:02,42.805,6.029,0.014,-0.011,0.01,105.0,111.0,101.0,13.4,1505.3,327.4,-0.7,1.8,2470.389,13.32,0.017,128.2
2020-09-12T01:25:03,42.805,6.029,0.034,-0.008,0.001,105.0,111.0,102.0,13.4,1505.3,323.5,-0.7,1.9,2470.382,13.32,0.034,103.2
2020-09-12T01:28:02,42.805,6.029,0.032,-0.01,-0.005,104.0,112.0,101.0,13.3,1505.3,325.0,-0.7,1.8,2470.381,13.32,0.033,107.4
2020-09-12T01:31:02,42.805,6.029,0.035,-0.024,-0.016,105.0,110.0,102.0,13.4,1505.3,327.8,-0.7,1.8,2470.353,13.32,0.042,124.4
2020-09-12T01:34:03,42.805,6.029,0.04,0.004,0.019,105.0,113.0,101.0,13.4,1505.3,324.1,-0.7,1.9,2470.349,13.32,0.04,84.3
2020-09-12T01:37:03,42.805,6.029,0.042,-0.019,-0.009,104.0,111.0,103.0,13.4,1505.3,324.8,-0.7,1.8,2470.386,13.32,0.046,114.3
2020-09-12T01:40:02,42.805,6.029,0.047,-0.011,0.002,105.0,109.0,103.0,13.4,1505.3,324.4,-0.7,1.8,2470.4,13.32,0.048,103.2
2020-09-12T01:43:02,42.805,6.029,0.019,-0.005,-0.027,104.0,114.0,102.0,13.4,1505.3,326.4,-0.7,1.8,2470.356,13.32,0.019,104.7
2020-09-12T01:46:04,42.805,6.029,0.034,-0.02,0.024,104.0,111.0,103.0,13.3,1505.3,325.3,-0.7,1.8,2470.39,13.32,0.039,120.5
2020-09-12T01:49:03,42.805,6.029,0.027,-0.018,-0.047,104.0,111.0,103.0,13.3,1505.3,328.2,-0.7,1.8,2470.395,13.32,0.032,123.7
2020-09-12T01:52:03,42.805,6.029,0.044,-0.026,0.023,104.0,110.0,102.0,13.3,1505.3,327.0,-0.7,1.8,2470.385,13.32,0.051,120.6
2020-09-12T01:55:03,42.805,6.029,0.036,-0.012,0.004,104.0,110.0,101.0,13.4,1505.3,327.6,-0.7,1.8,2470.4,13.32,0.037,108.4
2020-09-12T01:58:03,42.805,6.029,0.039,-0.019,0.024,104.0,112.0,101.0,13.3,1505.3,326.0,-0.7,1.9,2470.31,13.32,0.043,116.0
2020-09-12T02:04:02,42.805,6.029,0.051,-0.027,-0.006,104.0,112.0,102.0,13.4,1505.2,323.7,-0.7,1.8,2470.41,13.3,0.057,117.9
2020-09-12T02:07:03,42.805,6.029,0.03,-0.014,-0.002,104.0,112.0,101.0,13.4,1505.3,326.3,-0.7,1.8,2470.415,13.31,0.033,115.0
2020-09-12T02:10:02,42.805,6.029,0.029,-0.006,0.027,105.0,110.0,102.0,13.4,1505.3,325.0,-0.7,1.8,2470.362,13.31,0.029,101.7
2020-09-12T02:13:03,42.805,6.029,0.025,-0.005,-0.015,103.0,112.0,102.0,13.4,1505.3,325.1,-0.7,1.8,2470.423,13.32,0.025,101.3
2020-09-12T02:16:03,42.805,6.029,0.04,-0.007,-0.009,104.0,110.0,102.0,13.4,1505.3,328.3,-0.7,1.8,2470.388,13.32,0.04,99.9
2020-09-12T02:22:02,42.805,6.029,0.021,-0.007,-0.022,105.0,112.0,101.0,13.3,1505.2,323.7,-0.8,1.8,2470.402,13.3,0.022,108.4
2020-09-12T02:25:03,42.805,6.029,0.034,-0.001,-0.038,102.0,114.0,102.0,13.4,1505.3,326.5,-0.7,1.8,2470.391,13.31,0.034,91.7
2020-09-12T02:28:03,42.805,6.029,0.045,-0.011,0.007,104.0,112.0,102.0,13.4,1505.3,325.4,-0.7,1.8,2470.435,13.31,0.046,103.7
2020-09-12T02:31:03,42.805,6.029,0.016,-0.005,-0.012,103.0,112.0,101.0,13.4,1505.3,326.2,-0.7,1.8,2470.414,13.32,0.016,107.4
2020-09-12T02:34:03,42.805,6.029,0.012,-0.006,-0.004,105.0,111.0,102.0,13.4,1505.3,326.4,-0.7,1.8,2470.387,13.32,0.013,116.6
2020-09-12T02:37:02,42.805,6.029,0.018,0.009,-0.033,103.0,113.0,101.0,13.4,1505.3,323.8,-0.7,1.8,2470.399,13.32,0.02,63.4
2020-09-12T02:40:02,42.805,6.029,0.012,-0.025,-0.043,105.0,113.0,101.0,13.4,1505.3,325.0,-0.7,1.9,2470.37,13.32,0.027,154.4
2020-09-12T02:43:03,42.805,6.029,0.007,-0.002,-0.023,105.0,110.0,102.0,13.4,1505.3,326.0,-0.7,1.8,2470.364,13.32,0.007,105.9
2020-09-12T02:46:02,42.805,6.029,0.017,-0.003,-0.011,104.0,112.0,102.0,13.3,1505.3,323.6,-0.7,1.8,2470.356,13.32,0.017,100.0
2020-09-12T02:52:03,42.805,6.029,0.031,0.014,0.0,104.0,114.0,101.0,13.4,1505.2,324.8,-0.7,1.8,2470.439,13.3,0.034,65.7
2020-09-12T02:55:03,42.805,6.029,0.048,-0.013,0.03,104.0,112.0,103.0,13.4,1505.3,325.6,-0.7,1.8,2470.406,13.31,0.049,105.2
2020-09-12T02:58:02,42.805,6.029,0.026,0.003,-0.013,105.0,113.0,101.0,13.4,1505.3,323.7,-0.7,1.8,2470.392,13.31,0.026,83.4
2020-09-12T03:04:03,42.805,6.029,0.036,-0.023,0.002,104.0,111.0,101.0,13.3,1505.2,324.3,-0.7,1.8,2470.459,13.3,0.042,122.6
2020-09-12T03:07:03,42.805,6.029,0.034,-0.011,0.02,104.0,115.0,100.0,13.4,1505.3,323.4,-0.7,1.9,2470.406,13.31,0.035,107.9
2020-09-12T03:10:02,42.805,6.029,0.036,0.004,0.012,104.0,113.0,102.0,13.4,1505.3,323.5,-0.7,1.8,2470.427,13.31,0.036,83.7
2020-09-12T03:13:03,42.805,6.029,0.032,0.003,0.018,102.0,111.0,102.0,13.4,1505.3,324.9,-0.7,1.8,2470.381,13.32,0.032,84.6
2020-09-12T03:16:03,42.805,6.029,0.032,-0.004,0.0,104.0,113.0,102.0,13.3,1505.3,326.3,-0.7,1.8,2470.388,13.32,0.032,97.1
2020-09-12T03:19:02,42.805,6.029,0.03,-0.005,-0.01,105.0,114.0,102.0,13.3,1505.3,326.8,-0.7,1.8,2470.396,13.32,0.03,99.5
2020-09-12T03:22:02,42.805,6.029,0.041,-0.005,-0.017,102.0,109.0,101.0,13.4,1505.3,326.9,-0.7,1.8,2470.348,13.32,0.041,97.0
2020-09-12T03:25:03,42.805,6.029,0.037,-0.009,0.017,103.0,111.0,103.0,13.4,1505.3,325.3,-0.7,1.9,2470.376,13.32,0.038,103.7
2020-09-12T03:28:03,42.805,6.029,0.032,-0.008,0.01,102.0,113.0,102.0,13.3,1505.3,324.1,-0.7,1.8,2470.384,13.32,0.032,104.0
2020-09-12T03:31:05,42.805,6.029,0.048,-0.003,0.013,105.0,112.0,100.0,13.4,1505.3,324.7,-0.7,1.8,2470.407,13.32,0.048,93.6
2020-09-12T03:34:02,42.805,6.029,0.03,-0.01,-0.018,104.0,112.0,102.0,13.4,1505.3,324.6,-0.7,1.9,2470.402,13.32,0.031,108.4
2020-09-12T03:37:02,42.805,6.029,0.044,-0.013,-0.002,105.0,112.0,101.0,13.4,1505.3,325.1,-0.7,1.8,2470.375,13.32,0.045,106.5
2020-09-12T03:40:03,42.805,6.029,0.016,0.002,-0.015,104.0,111.0,102.0,13.4,1505.3,324.0,-0.7,1.8,2470.391,13.32,0.016,82.9
2020-09-12T03:43:02,42.805,6.029,0.03,-0.002,-0.026,104.0,113.0,101.0,13.4,1505.3,322.8,-0.7,1.8,2470.352,13.32,0.03,93.8
2020-09-12T03:46:02,42.805,6.029,0.045,0.0,-0.017,104.0,112.0,101.0,13.4,1505.3,323.7,-0.7,1.8,2470.379,13.32,0.045,90.0
2020-09-12T03:49:03,42.805,6.029,0.043,-0.021,-0.011,104.0,111.0,101.0,13.4,1505.3,326.4,-0.7,1.8,2470.365,13.32,0.047,116.0
2020-09-12T03:52:03,42.805,6.029,0.014,0.021,-0.016,105.0,112.0,102.0,13.3,1505.3,327.0,-0.7,1.8,2470.403,13.32,0.025,33.7
2020-09-12T03:55:03,42.805,6.029,0.05,-0.018,-0.028,105.0,113.0,101.0,13.4,1505.3,323.7,-0.7,1.8,2470.351,13.32,0.053,109.8
2020-09-12T03:58:03,42.805,6.029,0.043,-0.016,-0.026,103.0,114.0,102.0,13.4,1505.3,324.3,-0.7,1.9,2470.365,13.32,0.045,110.4
2020-09-12T04:04:03,42.805,6.029,0.039,-0.016,-0.04,104.0,114.0,102.0,13.4,1505.2,324.3,-0.7,1.9,2470.403,13.3,0.042,112.3
2020-09-12T04:07:02,42.805,6.029,0.033,-0.001,0.0,104.0,114.0,102.0,13.4,1505.3,326.3,-0.7,1.8,2470.406,13.31,0.033,91.7
2020-09-12T04:10:03,42.805,6.029,0.055,-0.008,-0.009,103.0,112.0,103.0,13.4,1505.3,324.6,-0.7,1.8,2470.387,13.31,0.055,98.3
2020-09-12T04:13:03,42.805,6.029,0.032,-0.007,0.001,104.0,112.0,101.0,13.4,1505.3,326.4,-0.7,1.8,2470.407,13.32,0.032,102.3
2020-09-12T04:16:03,42.805,6.029,0.04,0.01,0.004,103.0,112.0,101.0,13.3,1505.3,326.2,-0.7,1.8,2470.414,13.32,0.041,76.0
2020-09-12T04:19:03,42.805,6.029,0.039,-0.013,-0.017,105.0,113.0,102.0,13.4,1505.3,325.2,-0.7,1.8,2470.377,13.32,0.041,108.4
2020-09-12T04:22:02,42.805,6.029,0.011,-0.005,-0.007,103.0,111.0,100.0,13.4,1505.3,326.2,-0.7,1.8,2470.377,13.32,0.012,114.4
2020-09-12T04:25:03,42.805,6.029,0.014,-0.012,-0.019,104.0,112.0,100.0,13.4,1505.3,325.2,-0.7,1.8,2470.375,13.32,0.018,130.6
2020-09-12T04:28:03,42.805,6.029,0.016,0.011,-0.02,103.0,111.0,102.0,13.4,1505.3,326.0,-0.7,1.8,2470.371,13.32,0.019,55.5
2020-09-12T04:31:03,42.805,6.029,0.023,-0.003,-0.021,103.0,114.0,102.0,13.3,1505.3,325.9,-0.7,1.8,2470.38,13.32,0.023,97.4
2020-09-12T04:34:03,42.805,6.029,0.053,-0.005,0.008,104.0,112.0,102.0,13.3,1505.3,326.3,-0.7,1.8,2470.367,13.32,0.053,95.4
2020-09-12T04:37:03,42.805,6.029,0.053,-0.01,-0.011,104.0,110.0,101.0,13.4,1505.3,325.5,-0.7,1.8,2470.373,13.32,0.053,100.7
2020-09-12T04:40:03,42.805,6.029,0.041,-0.024,-0.009,104.0,111.0,100.0,13.4,1505.3,324.2,-0.7,1.9,2470.377,13.32,0.047,120.3
2020-09-12T04:43:03,42.805,6.029,0.059,-0.002,0.004,104.0,111.0,102.0,13.3,1505.3,326.2,-0.7,1.8,2470.33,13.32,0.059,91.9
2020-09-12T04:46:03,42.805,6.029,0.034,-0.018,-0.018,105.0,112.0,102.0,13.4,1505.3,328.0,-0.7,1.8,2470.365,13.32,0.038,117.9
2020-09-12T04:49:03,42.805,6.029,0.05,-0.012,0.014,105.0,111.0,101.0,13.4,1505.3,325.0,-0.8,1.8,2470.376,13.32,0.051,103.5
2020-09-12T04:52:03,42.805,6.029,0.037,-0.002,0.007,104.0,109.0,102.0,13.4,1505.3,323.4,-0.7,1.8,2470.327,13.32,0.037,93.1
2020-09-12T04:55:03,42.805,6.029,0.039,-0.005,-0.001,104.0,113.0,102.0,13.3,1505.3,324.8,-0.7,1.8,2470.316,13.32,0.039,97.3
2020-09-12T04:58:03,42.805,6.029,0.046,-0.009,0.0,104.0,109.0,102.0,13.4,1505.3,326.9,-0.7,1.8,2470.326,13.32,0.046,101.1
2020-09-12T05:04:03,42.805,6.029,0.024,-0.01,-0.007,104.0,112.0,102.0,13.4,1505.2,326.5,-0.8,1.9,2470.387,13.3,0.026,112.6
2020-09-12T05:07:03,42.805,6.029,0.033,-0.022,-0.014,104.0,111.0,102.0,13.4,1505.3,325.4,-0.7,1.8,2470.343,13.31,0.039,123.7
2020-09-12T05:10:03,42.805,6.029,0.04,-0.018,-0.002,104.0,108.0,102.0,13.4,1505.3,326.0,-0.7,1.8,2470.333,13.31,0.043,114.2
2020-09-12T05:13:03,42.805,6.029,0.024,-0.029,-0.026,104.0,110.0,102.0,13.3,1505.3,322.7,-0.7,1.8,2470.359,13.32,0.037,140.4
2020-09-12T05:16:02,42.805,6.029,0.035,-0.011,-0.023,104.0,112.0,101.0,13.4,1505.3,324.7,-0.7,1.8,2470.352,13.32,0.036,107.4
2020-09-12T05:19:03,42.805,6.029,0.051,-0.012,-0.013,104.0,110.0,101.0,13.4,1505.3,328.4,-0.7,1.8,2470.361,13.32,0.052,103.2
2020-09-12T05:22:03,42.805,6.029,0.048,-0.014,0.015,105.0,113.0,101.0,13.4,1505.3,322.9,-0.7,1.8,2470.346,13.32,0.05,106.3
2020-09-12T05:25:04,42.805,6.029,0.032,-0.02,-0.011,104.0,112.0,102.0,13.4,1505.3,325.3,-0.7,1.8,2470.352,13.32,0.037,122.0
2020-09-12T05:28:03,42.805,6.029,0.048,-0.001,0.006,104.0,113.0,101.0,13.4,1505.3,325.1,-0.7,1.8,2470.302,13.32,0.048,91.2
2020-09-12T05:31:03,42.805,6.029,0.058,-0.011,0.0,103.0,111.0,103.0,13.4,1505.3,323.0,-0.7,1.8,2470.354,13.32,0.059,100.7
2020-09-12T05:34:03,42.805,6.029,0.045,-0.011,-0.003,103.0,112.0,102.0,13.4,1505.3,325.2,-0.7,1.8,2470.316,13.32,0.046,103.7
2020-09-12T05:37:02,42.805,6.029,0.03,-0.01,-0.021,104.0,109.0,102.0,13.4,1505.3,325.9,-0.7,1.8,2470.305,13.32,0.031,108.4
2020-09-12T05:40:03,42.805,6.029,0.017,0.004,-0.029,104.0,108.0,103.0,13.3,1505.3,323.4,-0.7,1.8,2470.343,13.32,0.017,76.8
2020-09-12T05:43:03,42.805,6.029,0.023,0.008,-0.004,104.0,108.0,100.0,13.4,1505.3,325.6,-0.7,1.8,2470.368,13.32,0.024,70.8
2020-09-12T05:46:03,42.805,6.029,0.039,-0.011,-0.021,104.0,110.0,101.0,13.4,1505.3,326.8,-0.7,1.8,2470.343,13.32,0.04,105.7
2020-09-12T05:49:02,42.805,6.029,0.046,-0.022,-0.031,104.0,111.0,103.0,13.4,1505.3,323.3,-0.7,1.8,2470.307,13.32,0.05,115.6
2020-09-12T05:52:03,42.805,6.029,0.018,0.003,-0.04,103.0,112.0,102.0,13.4,1505.3,324.1,-0.7,1.9,2470.318,13.32,0.018,80.5
2020-09-12T05:55:03,42.805,6.029,0.051,-0.015,0.002,104.0,109.0,101.0,13.4,1505.3,327.0,-0.7,1.8,2470.36,13.32,0.053,106.4
2020-09-12T05:58:03,42.805,6.029,0.053,-0.02,-0.019,104.0,107.0,101.0,13.4,1505.3,326.1,-0.7,1.8,2470.357,13.32,0.056,110.7
2020-09-12T06:04:02,42.805,6.029,0.05,0.006,-0.017,103.0,111.0,102.0,13.4,1505.2,326.9,-0.7,1.8,2470.359,13.3,0.05,83.2
2020-09-12T06:07:03,42.805,6.029,0.039,-0.013,-0.012,103.0,113.0,101.0,13.4,1505.3,325.9,-0.7,1.8,2470.373,13.31,0.041,108.4
2020-09-12T06:10:03,42.805,6.029,0.061,-0.012,0.0,104.0,109.0,102.0,13.4,1505.3,326.3,-0.7,1.8,2470.38,13.31,0.062,101.1
2020-09-12T06:13:03,42.805,6.029,0.036,-0.015,0.019,105.0,109.0,101.0,13.4,1505.3,326.8,-0.7,1.8,2470.322,13.32,0.039,112.6
2020-09-12T06:16:02,42.805,6.029,0.051,-0.019,-0.027,103.0,110.0,102.0,13.4,1505.3,324.6,-0.7,1.8,2470.366,13.32,0.054,110.4
2020-09-12T06:19:03,42.805,6.029,0.038,-0.012,-0.01,104.0,108.0,101.0,13.4,1505.3,323.5,-0.7,1.8,2470.361,13.32,0.039,107.5
2020-09-12T06:22:03,42.805,6.029,0.037,-0.008,0.014,105.0,108.0,102.0,13.4,1505.3,327.4,-0.7,1.8,2470.339,13.32,0.037,102.2
2020-09-12T06:25:03,42.805,6.029,0.023,-0.008,-0.026,105.0,110.0,101.0,13.4,1505.3,325.9,-0.7,1.8,2470.335,13.32,0.024,109.2
2020-09-12T06:28:03,42.805,6.029,0.029,-0.012,0.006,103.0,108.0,102.0,13.4,1505.3,325.4,-0.7,1.8,2470.341,13.32,0.031,112.5
2020-09-12T06:31:03,42.805,6.029,0.054,0.001,-0.017,103.0,108.0,102.0,13.4,1505.3,327.8,-0.7,1.8,2470.371,13.32,0.054,88.9
2020-09-12T06:34:02,42.805,6.029,0.038,-0.009,-0.018,103.0,108.0,102.0,13.3,1505.3,326.6,-0.7,1.8,2470.316,13.32,0.039,103.3
2020-09-12T06:37:02,42.805,6.029,0.048,-0.009,-0.008,103.0,108.0,102.0,13.3,1505.3,323.9,-0.7,1.8,2470.348,13.32,0.048,100.6
2020-09-12T06:40:03,42.805,6.029,0.035,0.0,-0.004,104.0,110.0,101.0,13.3,1505.3,323.8,-0.7,1.8,2470.316,13.32,0.035,90.0
2020-09-12T06:43:03,42.805,6.029,0.043,-0.011,0.006,104.0,107.0,101.0,13.4,1505.3,327.2,-0.7,1.8,2470.361,13.32,0.044,104.3
2020-09-12T06:49:02,42.805,6.029,0.049,-0.022,0.001,104.0,109.0,102.0,13.3,1505.2,325.2,-0.8,1.8,2470.381,13.3,0.053,114.2
2020-09-12T06:52:03,42.805,6.029,0.051,-0.006,-0.002,104.0,108.0,102.0,13.4,1505.3,326.4,-0.7,1.8,2470.316,13.31,0.051,96.7
2020-09-12T06:55:03,42.805,6.029,0.037,-0.014,-0.03,104.0,107.0,100.0,13.3,1505.3,326.5,-0.7,1.8,2470.365,13.31,0.039,110.7
2020-09-12T06:58:03,42.805,6.029,0.031,0.007,0.0,104.0,109.0,102.0,13.4,1505.3,326.1,-0.7,1.8,2470.345,13.32,0.031,77.3
2020-09-12T07:04:03,42.805,6.029,0.046,-0.012,-0.029,103.0,107.0,101.0,13.4,1505.2,325.4,-0.7,1.8,2470.373,13.3,0.047,104.6
2020-09-12T07:07:02,42.805,6.029,0.042,-0.023,-0.023,103.0,108.0,102.0,13.3,1505.3,323.4,-0.7,1.8,2470.332,13.31,0.047,118.7
2020-09-12T07:10:03,42.805,6.029,0.052,-0.006,-0.007,103.0,106.0,101.0,13.3,1505.3,325.3,-0.7,1.8,2470.349,13.31,0.052,96.6
2020-09-12T07:13:03,42.805,6.029,0.024,-0.016,-0.024,103.0,108.0,101.0,13.4,1505.3,322.8,-0.7,1.8,2470.323,13.32,0.028,123.7
2020-09-12T07:16:03,42.805,6.029,0.03,0.013,-0.003,102.0,111.0,102.0,13.4,1505.3,323.9,-0.7,1.8,2470.352,13.32,0.032,66.6
2020-09-12T07:19:03,42.805,6.029,0.029,-0.026,-0.007,103.0,108.0,101.0,13.4,1505.3,325.5,-0.7,1.8,2470.363,13.32,0.038,131.9
2020-09-12T07:22:02,42.805,6.029,0.027,-0.021,0.006,106.0,107.0,101.0,13.3,1505.3,325.2,-0.7,1.8,2470.336,13.32,0.034,127.9
2020-09-12T07:25:03,42.805,6.029,0.035,-0.003,-0.007,104.0,108.0,101.0,13.4,1505.3,323.1,-0.7,1.8,2470.365,13.32,0.035,94.9
2020-09-12T07:28:03,42.805,6.029,0.052,-0.017,0.008,104.0,107.0,101.0,13.4,1505.3,325.6,-0.7,1.8,2470.351,13.32,0.054,108.1
2020-09-12T07:31:05,42.805,6.029,0.026,-0.014,-0.025,104.0,107.0,102.0,13.3,1505.3,324.5,-0.7,1.8,2470.287,13.32,0.029,118.3
2020-09-12T07:34:03,42.805,6.029,0.051,-0.017,0.034,104.0,106.0,101.0,13.4,1505.3,327.5,-0.7,1.8,2470.346,13.32,0.053,108.4
2020-09-12T07:40:02,42.805,6.029,0.039,-0.013,-0.009,105.0,107.0,102.0,13.4,1505.2,324.3,-0.7,1.8,2470.366,13.3,0.041,108.4
2020-09-12T07:43:03,42.805,6.029,0.047,-0.021,0.006,104.0,105.0,101.0,13.3,1505.3,324.9,-0.7,1.8,2470.31,13.31,0.051,114.1
2020-09-12T07:46:02,42.805,6.029,0.055,-0.018,0.004,105.0,108.0,101.0,13.4,1505.3,325.0,-0.7,1.8,2470.341,13.31,0.057,108.1
2020-09-12T07:49:03,42.805,6.029,0.035,-0.008,-0.001,104.0,108.0,101.0,13.3,1505.3,325.2,-0.7,1.8,2470.368,13.32,0.035,102.9
2020-09-12T07:52:02,42.805,6.029,0.036,-0.015,-0.017,103.0,106.0,102.0,13.3,1505.3,326.3,-0.7,1.8,2470.295,13.32,0.039,112.6
2020-09-12T07:55:03,42.805,6.029,0.049,-0.003,0.0,104.0,106.0,101.0,13.4,1505.3,323.4,-0.7,1.9,2470.316,13.32,0.049,93.5
2020-09-12T07:58:02,42.805,6.029,0.038,-0.037,-0.007,102.0,108.0,102.0,13.4,1505.3,328.4,-0.7,1.8,2470.331,13.32,0.053,134.2
2020-09-12T08:04:03,42.805,6.029,0.021,-0.012,-0.006,103.0,108.0,103.0,13.4,1505.2,325.0,-0.8,1.8,2470.357,13.3,0.024,119.7
2020-09-12T08:07:03,42.805,6.029,0.029,0.013,-0.002,103.0,108.0,101.0,13.4,1505.3,326.6,-0.7,1.8,2470.38,13.31,0.031,65.9
2020-09-12T08:10:03,42.805,6.029,0.046,-0.005,0.003,103.0,109.0,101.0,13.4,1505.3,322.6,-0.7,1.8,2470.329,13.31,0.046,96.2
2020-09-12T08:13:03,42.805,6.029,0.042,-0.008,-0.018,104.0,108.0,103.0,13.4,1505.3,323.7,-0.7,1.8,2470.308,13.32,0.042,100.8
2020-09-12T08:16:03,42.805,6.029,0.022,-0.028,-0.011,104.0,108.0,101.0,13.4,1505.3,323.8,-0.7,1.8,2470.315,13.32,0.035,141.8
2020-09-12T08:19:03,42.805,6.029,0.036,-0.022,0.011,103.0,108.0,102.0,13.4,1505.3,323.0,-0.7,1.8,2470.339,13.32,0.042,121.4
2020-09-12T08:22:02,42.805,6.029,0.026,-0.031,0.012,105.0,106.0,102.0,13.4,1505.3,328.2,-0.7,1.8,2470.279,13.32,0.04,140.0
2020-09-12T08:25:03,42.805,6.029,0.036,-0.014,-0.011,103.0,108.0,101.0,13.4,1505.3,325.0,-0.7,1.9,2470.27,13.32,0.038,111.2
2020-09-12T08:28:03,42.805,6.029,0.024,-0.018,-0.025,103.0,108.0,102.0,13.4,1505.3,322.9,-0.7,1.8,2470.306,13.32,0.03,126.9
2020-09-12T08:31:03,42.805,6.029,0.05,-0.035,-0.008,104.0,107.0,100.0,13.4,1505.3,326.5,-0.8,1.8,2470.298,13.32,0.061,125.0
2020-09-12T08:34:03,42.805,6.029,0.042,-0.014,0.016,104.0,106.0,101.0,13.4,1505.3,325.5,-0.7,1.8,2470.278,13.32,0.044,108.4
2020-09-12T08:37:03,42.805,6.029,0.023,-0.01,-0.001,105.0,106.0,102.0,13.3,1505.3,326.4,-0.7,1.8,2470.289,13.32,0.025,113.5
2020-09-12T08:40:03,42.805,6.029,0.055,-0.017,-0.001,105.0,108.0,101.0,13.4,1505.3,326.8,-0.7,1.8,2470.3,13.32,0.057,107.2
2020-09-12T08:43:03,42.805,6.029,0.047,-0.026,-0.031,103.0,107.0,102.0,13.4,1505.3,323.1,-0.7,1.8,2470.316,13.32,0.053,118.9
2020-09-12T08:46:03,42.805,6.029,0.045,-0.016,0.001,103.0,108.0,101.0,13.4,1505.3,326.3,-0.7,1.8,2470.317,13.32,0.047,109.6
2020-09-12T08:49:03,42.805,6.029,0.052,-0.008,0.008,103.0,107.0,102.0,13.3,1505.3,326.3,-0.7,1.8,2470.317,13.32,0.052,98.7
2020-09-12T08:52:03,42.805,6.029,-0.003,-0.025,-0.02,105.0,108.0,100.0,13.4,1505.3,326.3,-0.7,1.8,2470.337,13.32,0.025,186.8
2020-09-12T08:55:02,42.805,6.029,0.029,0.002,-0.034,103.0,108.0,101.0,13.4,1505.3,324.9,-0.7,1.8,2470.307,13.32,0.029,86.1
2020-09-12T08:58:02,42.805,6.029,0.028,-0.019,-0.012,104.0,107.0,100.0,13.3,1505.3,325.7,-0.7,1.8,2470.327,13.32,0.033,124.2
2020-09-12T09:04:02,42.805,6.029,0.034,-0.009,0.0,104.0,108.0,101.0,13.3,1505.2,325.5,-0.7,1.8,2470.331,13.3,0.035,104.8
2020-09-12T09:07:03,42.805,6.029,0.012,-0.003,-0.032,104.0,106.0,102.0,13.4,1505.3,326.1,-0.7,1.8,2470.36,13.31,0.012,104.0
2020-09-12T09:10:03,42.805,6.029,0.044,0.01,0.01,103.0,106.0,102.0,13.3,1505.3,323.6,-0.7,1.8,2470.345,13.31,0.045,77.2
2020-09-12T09:13:03,42.805,6.029,0.04,-0.012,0.012,103.0,107.0,100.0,13.4,1505.3,327.9,-0.7,1.9,2470.328,13.32,0.041,106.7
2020-09-12T09:16:03,42.805,6.029,0.038,-0.011,-0.002,103.0,106.0,101.0,13.3,1505.3,327.0,-0.7,1.8,2470.326,13.32,0.039,106.1
2020-09-12T09:19:02,42.805,6.029,0.035,-0.027,-0.024,103.0,106.0,102.0,13.3,1505.3,324.5,-0.7,1.8,2470.353,13.32,0.044,127.7
2020-09-12T09:22:02,42.805,6.029,0.032,0.002,0.0,103.0,107.0,101.0,13.4,1505.3,324.8,-0.7,1.9,2470.338,13.32,0.032,86.4
2020-09-12T09:25:02,42.805,6.029,0.052,-0.033,0.008,104.0,106.0,102.0,13.4,1505.3,324.3,-0.7,1.8,2470.28,13.32,0.061,122.4
2020-09-12T09:28:03,42.805,6.029,0.041,-0.027,-0.01,104.0,108.0,102.0,13.4,1505.3,325.6,-0.7,1.8,2470.267,13.32,0.049,123.4
2020-09-12T09:31:03,42.805,6.029,0.051,-0.015,-0.015,104.0,106.0,101.0,13.3,1505.3,324.3,-0.7,1.8,2470.31,13.32,0.053,106.4
2020-09-12T09:34:03,42.805,6.029,0.05,-0.007,-0.005,103.0,108.0,101.0,13.3,1505.3,326.8,-0.7,1.8,2470.302,13.32,0.05,98.0
2020-09-12T09:37:03,42.805,6.029,0.042,-0.018,0.013,103.0,106.0,102.0,13.4,1505.3,325.9,-0.7,1.8,2470.309,13.32,0.045,113.2
2020-09-12T09:40:02,42.805,6.029,0.027,-0.009,-0.006,103.0,107.0,101.0,13.4,1505.3,324.5,-0.7,1.8,2470.32,13.32,0.028,108.4
2020-09-12T09:43:02,42.805,6.029,0.042,-0.016,0.012,104.0,106.0,101.0,13.3,1505.3,324.8,-0.7,1.9,2470.331,13.32,0.044,110.9
2020-09-12T09:46:02,42.805,6.029,0.048,0.002,0.023,103.0,109.0,102.0,13.3,1505.3,324.0,-0.7,1.8,2470.32,13.32,0.048,87.6
2020-09-12T09:49:03,42.805,6.029,0.035,-0.019,-0.009,104.0,108.0,103.0,13.4,1505.3,327.0,-0.7,1.8,2470.294,13.32,0.039,118.5
2020-09-12T09:52:03,42.805,6.029,0.03,-0.015,-0.023,104.0,106.0,102.0,13.4,1505.3,324.2,-0.7,1.9,2470.292,13.32,0.033,116.6
2020-09-12T09:55:05,42.805,6.029,0.034,-0.016,-0.013,104.0,109.0,102.0,13.3,1505.3,328.1,-0.7,1.8,2470.319,13.32,0.037,115.2
2020-09-12T09:58:02,42.805,6.029,0.044,-0.01,-0.01,103.0,109.0,101.0,13.4,1505.3,324.2,-0.7,1.9,2470.337,13.32,0.045,102.8
2020-09-12T10:04:03,42.805,6.029,0.051,-0.03,-0.016,104.0,106.0,102.0,13.4,1505.2,324.8,-0.7,1.8,2470.349,13.3,0.059,120.5
2020-09-12T10:07:03,42.805,6.029,0.01,-0.004,-0.005,103.0,109.0,102.0,13.4,1505.3,324.6,-0.7,1.8,2470.339,13.31,0.01,111.8
2020-09-12T10:10:03,42.805,6.029,0.022,-0.017,-0.033,105.0,110.0,101.0,13.4,1505.3,324.8,-0.7,1.8,2470.316,13.31,0.027,127.7
2020-09-12T10:13:03,42.805,6.029,0.02,-0.003,0.025,104.0,109.0,101.0,13.3,1505.3,324.8,-0.7,1.8,2470.319,13.32,0.02,98.5